Regional Weather Roundup
Issued by NWS Bismarck, ND

Home | Current Version | Previous Version | Text Only | Print | Product List | Glossary On
Versions: 1 2 3 4 5 6 7 8 9 10 11 12 13 14 15 16 17 18 19 20 21 22 23 24 25 26 27 28 29 30 31 32 33 34 35 36 37 38 39 40 41 42 43 44 45 46 47 48 49 50
996
ASUS43 KBIS 100010
RWRBIS

NWR BROADCAST TEXT
NATIONAL WEATHER SERVICE BISMARCK ND
600 PM CST TUE FEB 09 2016

NOTE: "FAIR" INDICATES FEW OR NO CLOUDS BELOW 12,000 FEET WITH NO
SIGNIFICANT WEATHER AND/OR OBSTRUCTIONS TO VISIBILITY.


CITY           SKY/WX    TMP DP  RH WIND       PRES   REMARKS
WILLISTON      CLOUDY    36  23  59 SE3       30.09F
MINOT          CLOUDY    29  17  61 E13       30.13F WCI  19
MINOT AFB      CLOUDY    26  19  75 SE14      30.12F WCI  15
BISMARCK       CLOUDY    39  19  44 N8        30.14S
DICKINSON      CLOUDY    36  22  56 E6        30.06F
GARRISON         N/A     34  20  56 N3        30.11F
HETTINGER ARPT CLOUDY    41  21  44 N7        30.10F
JAMESTOWN      CLOUDY    19  10  68 E10       30.18S WCI   7
BEACH          CLOUDY    45  28  53 CALM      30.09F
CARRINGTON     FAIR      19  14  79 E9        30.20S WCI   9
HAZEN          CLOUDY    32  19  59 CALM      30.14F
LINTON         FAIR      32  19  59 N5        30.16S
MANDAN         CLOUDY    34  19  55 N6        30.13F
OAKES          CLOUDY    19  12  73 E12       30.20S WCI   7
RUGBY          FAIR      14   9  79 E15       30.19F WCI  -1
STANLEY        CLOUDY    34  23  64 CALM      30.11F
TIOGA          CLOUDY    32  27  80 CALM      30.13F
WATFORD CITY   CLOUDY    36  23  60 E3        30.10F
$$

CITY           SKY/WX    TMP DP  RH WIND       PRES   REMARKS
GRAND FORKS    CLOUDY     9   1  70 N14       30.28F WCI  -7
GRAND FORKS AF CLOUDY     9   1  72 N12       30.27F WCI  -6
DEVILS LAKE    CLOUDY    11   6  81 E8        30.21F WCI  -1
FARGO          CLOUDY    13   5  70 N12       30.27R WCI  -1
CAVALIER       FAIR       5   0  78 N7        30.29F WCI  -7
GRAFTON        CLOUDY     5   0  78 N8        30.31F WCI  -8
GWINNER        CLOUDY    19  12  73 NE10      30.22S WCI   8
LANGDON        CLOUDY     9   1  72 NE7       30.22S WCI  -3
ROLLA          CLOUDY    10   5  79 E7        30.19F WCI   0
WALHALLA       FAIR       7   1  78 NE7       30.29F WCI  -5
$$

CITY           SKY/WX    TMP DP  RH WIND       PRES   REMARKS
ABERDEEN       CLOUDY    27  13  55 E6        30.18F
MOBRIDGE       CLOUDY    36  19  50 NE3       30.11R
BUFFALO          N/A     45  29  53 NW9       30.03F
RAPID CITY     CLOUDY    45  29  53 NE10      30.10S
GLASGOW        CLEAR     44  34  67 W6        30.05F
SIDNEY         PTCLDY    41  21  45 NE9       30.09S
WOLF POINT     PTCLDY    45  34  65 W5        30.06F
GLENDIVE       CLEAR     45  28  53 W6        30.09F
MILES CITY     CLEAR     51  30  44 W8        30.10F
BAKER          CLEAR     45  28  51 NW3       30.09F
$$

CITY           SKY/WX    TMP DP  RH WIND       PRES   REMARKS
BILLINGS       PTCLDY    55  23  28 SW18      30.16F
GREAT FALLS    CLEAR     57  24  28 SW23      30.13F
REGINA         MOCLDY    28  25  86 SE13      30.05F WCI  18
ESTEVAN        CLOUDY    30  23  74 E9        30.09F
$$





USA.gov is the U.S. government's official web portal to all federal, state and local government web resources and services.